DW8007 Weather Reports


time (UTC)temp
F
wind
direction
speed
knots
gust
knots
rain 1hr
in
rain 24hr
in
rain mn
in
humidity
%
barometer
mb
20260504100204 61 274 0.0 0.9 0.00 0.00 0.00 83 1012.3
20260504081703 61 293 0.0 1.7 0.00 0.00 0.00 82 1012.8
20260504081204 61 140 0.0 1.7 0.00 0.00 0.00 82 1012.9
20260504080704 61 70 0.0 0.9 0.00 0.00 0.00 83 1013.0
20260504080203 61 145 0.0 0.9 0.00 0.00 0.00 82 1013.0
20260504070203 61 101 0.0 1.7 0.00 0.00 0.00 81 1013.8
20260504060204 62 135 0.0 0.9 0.00 0.00 0.00 79 1014.6
20260504050203 64 168 0.0 1.7 0.00 0.00 0.00 75 1015.3
20260504045703 64 263 0.0 1.7 0.00 0.00 0.00 75 1015.5
20260504044704 64 266 0.0 1.7 0.00 0.00 0.00 76 1015.4
20260504044204 64 175 0.9 0.9 0.00 0.00 0.00 76 1015.6
20260504043704 64 313 0.0 0.9 0.00 0.00 0.00 76 1015.7
20260504043203 64 121 0.0 0.9 0.00 0.00 0.00 76 1015.7
20260504042204 64 133 0.0 1.7 0.00 0.00 0.00 76 1015.7
20260504041704 64 188 0.0 1.7 0.00 0.00 0.00 76 1015.6
20260504041203 64 132 0.0 1.7 0.00 0.00 0.00 77 1015.9
20260504040704 64 153 0.0 0.9 0.00 0.00 0.00 77 1015.7
20260504040204 64 117 0.0 0.9 0.00 0.00 0.00 76 1015.8
20260504035704 65 348 0.0 1.7 0.00 0.00 0.00 76 1015.9
20260504035204 64 22 0.0 1.7 0.00 0.00 0.00 76 1015.7
20260504034704 64 147 0.0 1.7 0.00 0.00 0.00 77 1015.6
20260504034203 64 173 0.0 0.9 0.00 0.00 0.00 77 1015.5
20260504033704 64 158 0.0 0.9 0.00 0.00 0.00 77 1015.4
20260504033204 64 151 0.0 0.9 0.00 0.00 0.00 77 1015.6
20260504032704 64 139 0.0 0.9 0.00 0.00 0.00 77 1015.7
20260504031704 64 139 0.0 0.9 0.00 0.00 0.00 77 1015.6
20260504031204 64 223 0.0 0.9 0.00 0.00 0.00 77 1015.5
20260504025704 64 144 0.0 0.9 0.00 0.00 0.00 76 1015.4
20260504025204 64 103 0.0 0.9 0.00 0.00 0.00 75 1015.4
20260504024203 65 30 0.0 0.9 0.00 0.00 0.00 74 1015.3
20260504023204 65 147 0.0 1.7 0.00 0.00 0.00 73 1015.2
20260504022703 65 170 0.0 0.9 0.00 0.00 0.00 72 1015.2
20260504022203 66 307 0.0 1.7 0.00 0.00 0.00 71 1014.9
20260504021704 66 342 0.0 2.6 0.00 0.00 0.00 71 1015.0
20260504021204 66 161 0.9 2.6 0.00 0.00 0.00 71 1015.2
20260504020704 66 141 0.0 0.9 0.00 0.00 0.00 71 1015.0
20260504015704 67 313 0.0 1.7 0.00 0.00 0.00 69 1015.0
20260504015204 67 165 0.9 0.9 0.00 0.00 0.00 69 1015.0
20260504014703 67 292 0.0 1.7 0.00 0.00 0.00 68 1015.0
20260504014204 67 81 0.0 1.7 0.00 0.00 0.00 67 1014.9
20260504013204 68 288 0.0 1.7 0.00 0.00 0.00 66 1014.7
20260504012704 69 159 0.0 1.7 0.00 0.00 0.00 66 1015.0
20260504012204 69 150 0.0 0.9 0.00 0.00 0.00 65 1014.8
20260504011703 69 148 0.0 0.9 0.00 0.00 0.00 64 1014.8
20260504011204 70 30 0.0 1.7 0.00 0.00 0.00 63 1014.8
20260504010204 71 349 0.0 2.6 0.00 0.00 0.00 60 1014.7
20260504005703 71 144 0.0 2.6 0.00 0.00 0.00 59 1014.8
20260504004704 72 176 0.9 2.6 0.00 0.00 0.00 56 1014.9
20260504004204 72 165 0.9 4.3 0.00 0.00 0.00 55 1015.0
20260504003704 73 168 0.9 4.3 0.00 0.00 0.00 54 1014.9
20260504003204 73 142 1.7 4.3 0.00 0.00 0.00 53 1015.0
20260504002703 73 162 1.7 4.3 0.00 0.00 0.00 52 1015.0
20260504002204 74 212 1.7 4.3 0.00 0.00 0.00 52 1015.0
20260504001703 74 165 1.7 4.3 0.00 0.00 0.00 51 1015.1
20260504001203 74 117 1.7 4.3 0.00 0.00 0.00 50 1015.1
20260504000704 74 192 0.9 5.2 0.00 0.00 0.00 49 1015.1
20260504000204 75 82 2.6 5.2 0.00 0.00 0.00 48 1015.2
20260503235703 75 160 1.7 5.2 0.00 0.00 0.00 49 1014.9
20260503235204 75 109 1.7 5.2 0.00 0.00 0.00 48 1015.0
20260503234203 76 157 1.7 5.2 0.00 0.00 0.00 48 1015.0
20260503233204 76 144 2.6 5.2 0.00 0.00 0.00 49 1014.8
20260503232704 76 148 1.7 4.3 0.00 0.00 0.00 50 1014.7
20260503232204 76 106 1.7 5.2 0.00 0.00 0.00 50 1015.0
20260503231704 77 167 1.7 6.1 0.00 0.00 0.00 48 1014.9
20260503231204 77 155 2.6 6.1 0.00 0.00 0.00 49 1015.0
20260503230704 77 93 1.7 6.1 0.00 0.00 0.00 49 1015.1
20260503230204 78 145 2.6 6.1 0.00 0.00 0.00 48 1015.0
20260503225704 78 158 1.7 5.2 0.00 0.00 0.00 47 1015.0
20260503225204 78 128 1.7 4.3 0.00 0.00 0.00 46 1015.1
20260503223704 78 171 2.6 4.3 0.00 0.00 0.00 46 1015.3
20260503223204 79 89 1.7 7.0 0.00 0.00 0.00 45 1015.2
20260503222703 79 153 2.6 7.0 0.00 0.00 0.00 43 1015.3
20260503222204 79 105 1.7 5.2 0.00 0.00 0.00 40 1015.4
20260503221704 79 186 2.6 6.1 0.00 0.00 0.00 37 1015.6
20260503221204 78 168 2.6 6.1 0.00 0.00 0.00 39 1015.3
20260503220704 78 89 2.6 6.1 0.00 0.00 0.00 42 1015.6
20260503220204 79 169 1.7 5.2 0.00 0.00 0.00 39 1015.4
20260503215704 78 187 1.7 4.3 0.00 0.00 0.00 43 1015.6
20260503215203 79 111 1.7 7.0 0.00 0.00 0.00 42 1015.7
20260503214703 79 161 2.6 7.0 0.00 0.00 0.00 41 1015.9
20260503214204 79 102 2.6 7.0 0.00 0.00 0.00 43 1016.0
20260503213204 79 112 2.6 7.8 0.00 0.00 0.00 42 1016.0
20260503211704 80 134 2.6 7.8 0.00 0.00 0.00 40 1016.1
20260503211204 80 98 1.7 4.3 0.00 0.00 0.00 40 1016.3
20260503210704 80 120 1.7 5.2 0.00 0.00 0.00 40 1016.5
20260503210204 80 174 2.6 5.2 0.00 0.00 0.00 39 1016.6
20260503205204 80 177 1.7 5.2 0.00 0.00 0.00 37 1016.8
20260503204703 79 132 2.6 7.8 0.00 0.00 0.00 39 1016.7
20260503204204 79 126 2.6 7.8 0.00 0.00 0.00 40 1016.8
20260503203704 80 101 2.6 6.1 0.00 0.00 0.00 41 1016.8
20260503203204 80 164 2.6 6.1 0.00 0.00 0.00 41 1016.9
20260503202703 80 133 2.6 5.2 0.00 0.00 0.00 38 1017.2
20260503202203 80 192 1.7 5.2 0.00 0.00 0.00 37 1017.2
20260503201703 80 164 2.6 5.2 0.00 0.00 0.00 37 1017.3
20260503201204 80 179 2.6 5.2 0.00 0.00 0.00 38 1017.3
20260503200203 80 188 0.9 5.2 0.00 0.00 0.00 39 1017.4
20260503195703 79 93 2.6 6.1 0.00 0.00 0.00 41 1017.5
20260503195204 81 112 2.6 6.1 0.00 0.00 0.00 36 1017.4
20260503194703 81 179 3.5 6.1 0.00 0.00 0.00 37 1017.5
20260503194204 81 184 3.5 5.2 0.00 0.00 0.00 36 1017.5
20260503193704 80 183 2.6 5.2 0.00 0.00 0.00 37 1017.6
20260503193203 80 270 0.9 6.1 0.00 0.00 0.00 36 1017.7
20260503192703 80 142 1.7 7.8 0.00 0.00 0.00 39 1017.8
20260503192204 79 152 3.5 7.8 0.00 0.00 0.00 39 1018.0
20260503191704 80 68 5.2 7.8 0.00 0.00 0.00 38 1018.0
20260503191204 81 138 1.7 5.2 0.00 0.00 0.00 36 1018.0
20260503190703 81 120 1.7 5.2 0.00 0.00 0.00 38 1017.9
20260503190204 80 124 2.6 5.2 0.00 0.00 0.00 37 1018.0
20260503185704 80 160 2.6 5.2 0.00 0.00 0.00 37 1018.2
20260503185204 80 174 3.5 5.2 0.00 0.00 0.00 36 1018.1
20260503184203 79 123 1.7 6.1 0.00 0.00 0.00 42 1018.4
20260503183703 79 71 4.3 6.1 0.00 0.00 0.00 39 1018.3
20260503183203 80 96 1.7 5.2 0.00 0.00 0.00 42 1018.4
20260503182704 80 181 1.7 4.3 0.00 0.00 0.00 39 1018.5
20260503182204 79 150 0.9 4.3 0.00 0.00 0.00 39 1018.6
20260503181203 79 159 1.7 5.2 0.00 0.00 0.00 41 1018.8
20260503180704 80 139 0.9 5.2 0.00 0.00 0.00 41 1018.9
20260503175703 80 104 4.3 7.0 0.00 0.00 0.00 41 1019.0
20260503175203 79 190 2.6 5.2 0.00 0.00 0.00 41 1019.2
20260503174703 78 165 2.6 5.2 0.00 0.00 0.00 42 1019.4
20260503174203 77 137 1.7 5.2 0.00 0.00 0.00 42 1019.3
20260503173204 79 99 2.6 5.2 0.00 0.00 0.00 44 1019.5
20260503172704 78 178 2.6 5.2 0.00 0.00 0.00 42 1019.5
20260503172204 78 14 0.9 5.2 0.00 0.00 0.00 43 1019.6
20260503171704 78 121 1.7 5.2 0.00 0.00 0.00 41 1019.8
20260503171204 79 177 2.6 5.2 0.00 0.00 0.00 44 1019.8
20260503170703 78 179 2.6 7.0 0.00 0.00 0.00 43 1019.8
20260503170204 77 180 2.6 7.0 0.00 0.00 0.00 43 1019.9
20260503150703 76 159 1.7 2.6 0.00 0.00 0.00 50 1020.2
20260503150203 75 179 1.7 2.6 0.00 0.00 0.00 50 1020.0
20260503140204 67 236 0.9 2.6 0.00 0.00 0.00 73 1019.6
20260503131204 62 324 0.9 2.6 0.00 0.00 0.00 80 1019.3
20260503130703 62 308 0.9 1.7 0.00 0.00 0.00 81 1019.3
20260503130204 61 301 0.9 2.6 0.00 0.00 0.00 82 1019.3
20260503120204 57 7 0.0 1.7 0.00 0.00 0.00 89 1018.6
20260503110704 55 235 0.0 0.9 0.00 0.00 0.00 93 1018.0
20260503110204 55 230 0.0 0.9 0.00 0.00 0.00 93 1018.1